Hourly Weather Aba

Today, 21 April, Wednesday

Time Temperature Precipitation Wind Pressure Humidity
00:00 +28°C° 0 mm 1 mps 751 mmHg 82%
01:00 +28°C° 0 mm 1 mps 751 mmHg 84%
02:00 +27°C° 0 mm 1 mps 750 mmHg 85%
03:00 +27°C° 0 mm 2 mps 750 mmHg 87%
04:00 +27°C° 0 mm 1 mps 750 mmHg 86%
05:00 +27°C° 0 mm 1 mps 751 mmHg 86%
06:00 +25°C° 0 mm 0 mps 752 mmHg 86%
07:00 +29°C° 0 mm 1 mps 752 mmHg 77%
08:00 +31°C° 0 mm 2 mps 752 mmHg 68%
09:00 +34°C° 0 mm 2 mps 752 mmHg 59%
10:00 +35°C° 0 mm 2 mps 752 mmHg 54%
11:00 +37°C° 0 mm 2 mps 751 mmHg 49%
12:00 +38°C° 0 mm 2 mps 751 mmHg 44%
13:00 +37°C° 0 mm 3 mps 750 mmHg 45%
14:00 +37°C° 0 mm 3 mps 749 mmHg 47%
15:00 +36°C° 0 mm 4 mps 749 mmHg 49%
16:00 +35°C° 0 mm 4 mps 749 mmHg 55%
17:00 +33°C° 0 mm 5 mps 749 mmHg 62%
18:00 +32°C° 0 mm 5 mps 749 mmHg 68%
19:00 +30°C° 0 mm 4 mps 750 mmHg 72%
20:00 +30°C° 0 mm 3 mps 751 mmHg 75%
21:00 +29°C° 0 mm 2 mps 751 mmHg 79%
22:00 +29°C° 0 mm 2 mps 751 mmHg 80%
23:00 +29°C° 0 mm 2 mps 751 mmHg 82%

Tomorrow, 22 April, Thursday

Time Temperature Precipitation Wind Pressure Humidity
00:00 +28°C° 0 mm 2 mps 751 mmHg 83%
01:00 +28°C° 0 mm 2 mps 751 mmHg 85%
02:00 +28°C° 0 mm 2 mps 751 mmHg 86%
03:00 +28°C° 0 mm 3 mps 751 mmHg 87%
04:00 +28°C° 0.2 mm 2 mps 752 mmHg 88%
05:00 +28°C° 0.2 mm 2 mps 752 mmHg 89%
06:00 +28°C° 0.2 mm 2 mps 753 mmHg 90%
07:00 +29°C° 0.5 mm 2 mps 753 mmHg 81%
08:00 +31°C° 0.5 mm 2 mps 753 mmHg 73%
09:00 +32°C° 0.5 mm 2 mps 754 mmHg 64%
10:00 +32°C° 0.2 mm 2 mps 753 mmHg 62%
11:00 +34°C° 0.2 mm 2 mps 752 mmHg 60%
12:00 +34°C° 0.2 mm 2 mps 752 mmHg 58%
13:00 +35°C° 0 mm 2 mps 751 mmHg 56%
14:00 +35°C° 0 mm 3 mps 751 mmHg 53%
15:00 +36°C° 0 mm 3 mps 750 mmHg 50%
16:00 +34°C° 0 mm 3 mps 750 mmHg 57%
17:00 +33°C° 0 mm 3 mps 750 mmHg 63%
18:00 +30°C° 0 mm 3 mps 750 mmHg 69%
19:00 +30°C° 0.1 mm 3 mps 751 mmHg 73%
20:00 +29°C° 0.1 mm 2 mps 752 mmHg 77%
21:00 +28°C° 0.1 mm 2 mps 753 mmHg 81%
22:00 +28°C° 0 mm 1 mps 752 mmHg 82%
23:00 +28°C° 0 mm 1 mps 752 mmHg 83%

Day after tomorrow, 23 April, Friday

Time Temperature Precipitation Wind Pressure Humidity
00:00 +28°C° 0 mm 1 mps 752 mmHg 84%
01:00 +28°C° 0 mm 1 mps 751 mmHg 85%
02:00 +27°C° 0 mm 1 mps 751 mmHg 86%
03:00 +27°C° 0 mm 1 mps 751 mmHg 87%
04:00 +27°C° 0 mm 1 mps 751 mmHg 87%
05:00 +28°C° 0 mm 1 mps 752 mmHg 87%
06:00 +28°C° 0 mm 1 mps 752 mmHg 87%
07:00 +29°C° 0 mm 1 mps 752 mmHg 79%
08:00 +31°C° 0 mm 2 mps 753 mmHg 70%
09:00 +34°C° 0 mm 2 mps 753 mmHg 61%
10:00 +35°C° 0.4 mm 2 mps 752 mmHg 57%
11:00 +36°C° 0.4 mm 2 mps 752 mmHg 53%
12:00 +37°C° 0.4 mm 2 mps 751 mmHg 49%
13:00 +36°C° 0.4 mm 3 mps 751 mmHg 55%
14:00 +34°C° 0.4 mm 3 mps 750 mmHg 61%
15:00 +33°C° 0.4 mm 4 mps 750 mmHg 66%
16:00 +32°C° 0.2 mm 4 mps 750 mmHg 71%
17:00 +30°C° 0.2 mm 4 mps 751 mmHg 76%
18:00 +29°C° 0.2 mm 3 mps 751 mmHg 80%
19:00 +28°C° 0.3 mm 3 mps 751 mmHg 83%
20:00 +28°C° 0.3 mm 2 mps 752 mmHg 85%
21:00 +27°C° 0.3 mm 1 mps 752 mmHg 88%
22:00 +27°C° 0 mm 1 mps 752 mmHg 88%
23:00 +27°C° 0 mm 1 mps 752 mmHg 89%

24 April, Saturday

Time Temperature Precipitation Wind Pressure Humidity
00:00 +27°C° 0 mm 1 mps 751 mmHg 89%
01:00 +27°C° 0.1 mm 1 mps 751 mmHg 90%
02:00 +26°C° 0.1 mm 1 mps 751 mmHg 90%
03:00 +24°C° 0.1 mm 0 mps 751 mmHg 90%
04:00 +24°C° 0.8 mm 0 mps 751 mmHg 91%
05:00 +24°C° 0.8 mm 0 mps 752 mmHg 91%
06:00 +24°C° 0.8 mm 0 mps 752 mmHg 91%
07:00 +28°C° 0.1 mm 1 mps 752 mmHg 84%
08:00 +30°C° 0.1 mm 1 mps 752 mmHg 77%
09:00 +31°C° 0.1 mm 2 mps 752 mmHg 70%
10:00 +32°C° 0 mm 2 mps 752 mmHg 64%
11:00 +34°C° 0 mm 2 mps 751 mmHg 59%
12:00 +35°C° 0 mm 3 mps 751 mmHg 53%
13:00 +35°C° 0.1 mm 3 mps 750 mmHg 55%
14:00 +34°C° 0.1 mm 3 mps 750 mmHg 57%
15:00 +34°C° 0.1 mm 3 mps 750 mmHg 59%
16:00 +33°C° 0 mm 3 mps 750 mmHg 65%
17:00 +31°C° 0 mm 3 mps 750 mmHg 70%
18:00 +30°C° 0 mm 2 mps 751 mmHg 75%
19:00 +29°C° 0 mm 2 mps 751 mmHg 78%
20:00 +29°C° 0 mm 2 mps 752 mmHg 80%
21:00 +28°C° 0 mm 2 mps 752 mmHg 82%
22:00 +28°C° 0 mm 2 mps 752 mmHg 83%
23:00 +28°C° 0 mm 1 mps 752 mmHg 84%

25 April, Sunday

Time Temperature Precipitation Wind Pressure Humidity
00:00 +28°C° 0 mm 1 mps 752 mmHg 85%
01:00 +28°C° 0 mm 1 mps 752 mmHg 86%
02:00 +27°C° 0 mm 1 mps 751 mmHg 87%
03:00 +27°C° 0 mm 1 mps 750 mmHg 88%
04:00 +27°C° 0 mm 1 mps 751 mmHg 88%
05:00 +27°C° 0 mm 1 mps 751 mmHg 88%
06:00 +28°C° 0 mm 1 mps 752 mmHg 87%
07:00 +29°C° 0 mm 1 mps 752 mmHg 80%
08:00 +31°C° 0 mm 2 mps 753 mmHg 72%
09:00 +32°C° 0 mm 2 mps 753 mmHg 64%
10:00 +34°C° 0 mm 2 mps 753 mmHg 60%
11:00 +36°C° 0 mm 2 mps 752 mmHg 55%
12:00 +37°C° 0 mm 2 mps 752 mmHg 50%
13:00 +36°C° 0 mm 2 mps 751 mmHg 55%
14:00 +34°C° 0 mm 2 mps 751 mmHg 59%
15:00 +32°C° 0 mm 2 mps 750 mmHg 64%
16:00 +32°C° 0 mm 2 mps 750 mmHg 66%
17:00 +31°C° 0 mm 2 mps 750 mmHg 69%
18:00 +30°C° 0 mm 3 mps 750 mmHg 71%
19:00 +30°C° 0.1 mm 2 mps 751 mmHg 75%
20:00 +29°C° 0.1 mm 2 mps 751 mmHg 79%
21:00 +28°C° 0.1 mm 2 mps 752 mmHg 83%
22:00 +28°C° 0 mm 2 mps 752 mmHg 84%
23:00 +28°C° 0 mm 2 mps 752 mmHg 86%

26 April, Monday

Time Temperature Precipitation Wind Pressure Humidity
00:00 +28°C° 0 mm 1 mps 752 mmHg 87%
01:00 +28°C° 0.1 mm 1 mps 752 mmHg 88%
02:00 +28°C° 0.1 mm 1 mps 751 mmHg 89%
03:00 +27°C° 0.1 mm 1 mps 751 mmHg 90%
04:00 +27°C° 0 mm 1 mps 751 mmHg 90%
05:00 +27°C° 0 mm 1 mps 752 mmHg 90%
06:00 +28°C° 0 mm 1 mps 752 mmHg 90%
07:00 +29°C° 0 mm 1 mps 753 mmHg 81%
08:00 +31°C° 0 mm 1 mps 753 mmHg 72%
09:00 +34°C° 0 mm 2 mps 753 mmHg 63%
10:00 +35°C° 0 mm 2 mps 753 mmHg 59%
11:00 +36°C° 0 mm 2 mps 752 mmHg 54%
12:00 +37°C° 0 mm 2 mps 751 mmHg 49%
13:00 +36°C° 0.4 mm 2 mps 751 mmHg 54%
14:00 +35°C° 0.4 mm 3 mps 750 mmHg 58%
15:00 +34°C° 0.4 mm 3 mps 750 mmHg 62%
16:00 +33°C° 0.2 mm 3 mps 750 mmHg 67%
17:00 +31°C° 0.2 mm 3 mps 750 mmHg 71%
18:00 +30°C° 0.2 mm 3 mps 750 mmHg 76%
19:00 +29°C° 0.1 mm 3 mps 751 mmHg 78%
20:00 +29°C° 0.1 mm 2 mps 752 mmHg 81%
21:00 +29°C° 0.1 mm 2 mps 752 mmHg 83%
22:00 +28°C° 0.2 mm 2 mps 752 mmHg 84%
23:00 +28°C° 0.2 mm 2 mps 752 mmHg 85%
Show more

We Need Your Consent

Meteoprog and our Service Providers may store and access personal data such as cookies, device identifiers or other similar technologies on your device and process such data to personalise content and ads, as well as provide social media features and to analyse the traffic.

  • Store and/or access information on your device

    Cookies, device identifiers or other information can be stored or accessed on your device for the purposes indicated above.

  • Personalised ads and content, ad and content measurement, audience insights, and products development

    Ads and content can be personalised based on a profile. More data can be added to better personalise ads and content. Ad and content performance can be measured. Insights about the audience who saw the ads and content can be derived. Such data can be used to develop or improve user’s experience, systems and software.

By clicking ‘I Agree’ you will allow the use of indicated cookies, device identifiers, web beacons or other similar technologies. Your settings can be changed in the browser on your device.

For certain purposes, legitimate interests may be relied on, rather than consent. You can read more about this in our Privacy and Cookie Policy.